Home   Weather   44°54'N, 91°52'W   Past weeks
Flag for USA

Past Weather in 44°54'N, 91°52'W, USA — Yesterday and Last 2 Weeks

Now
74 °F

Sunny.


Feels Like: 77 °F
Forecast: 80 / 56 °F
Wind: 7 mph from Northwest

Location: Eau Claire County Airport

Current Time: Jul 23, 2019 at 11:31:39 am

Latest Report: Jul 23, 2019 at 10:56 am


Visibility: 10 mi

Pressure: 30.19 "Hg

Humidity: 56%

Dew Point: 57 °F

Location of 44°54'N, 91°52'WLocation

Past Weather in 44°54'N, 91°52'W — Graph

°F

44°54'N, 91°52'W Temperature Yesterday

Maximum temperature yesterday: 78 °F (at 4:56 pm)
Minimum temperature yesterday: 60 °F (at 5:56 am)
Average temperature yesterday: 69 °F

High & Low Weather Summary for the Past Weeks

 TemperatureHumidityPressure
High91 °F (Jul 19, 2:56 pm)100% (Jul 21, 12:35 am)30.20 "Hg (Jul 21, 12:35 am)
Low54 °F (Jul 21, 5:56 am)35% (Jul 11, 1:56 pm)29.58 "Hg (Jul 19, 4:56 pm)
Average72 °F76%29.90 "Hg
* Reported Jul 8 9:56 am — Jul 23 9:56 am, 44°54'N, 91°52'W. Weather by CustomWeather, © 2019

Note: Actual official high and low records may vary slightly from our data, if they occured in-between our weather recording intervals... More about our weather records

Advertising

44°54'N, 91°52'W Weather History for the Previous 24 Hours

Scroll right to see more
 ConditionsComfort  
Time TempWeatherWind HumidityBarometerVisibility
9:56 am
Tue, Jul 23
72 °FSunny.6 mph64%30.19 "Hg10 mi
8:56 am67 °FSunny.5 mph73%30.20 "Hg10 mi
7:56 am63 °FSunny.5 mph81%30.19 "Hg10 mi
6:56 am61 °FSunny.No wind83%30.19 "Hg10 mi
5:56 am58 °FSunny.3 mph84%30.17 "Hg10 mi
4:56 am58 °FClear.5 mph87%30.16 "Hg10 mi
3:56 am59 °FClear.No wind84%30.16 "Hg10 mi
2:56 am61 °FClear.No wind81%30.15 "Hg10 mi
1:56 am62 °FClear.5 mph80%30.15 "Hg10 mi
12:56 am64 °FClear.3 mph75%30.15 "Hg10 mi
11:56 pm
Mon, Jul 22
65 °FClear.7 mph73%30.15 "Hg10 mi
10:56 pm67 °FPassing clouds.6 mph68%30.15 "Hg10 mi
9:56 pm67 °FClear.8 mph66%30.15 "Hg10 mi
8:56 pm68 °FClear.No wind65%30.14 "Hg10 mi
7:56 pm71 °FSunny.5 mph57%30.13 "Hg10 mi
6:56 pm75 °FSunny.7 mph47%30.13 "Hg10 mi
5:56 pm77 °FSunny.10 mph40%30.13 "Hg10 mi
4:56 pm78 °FPassing clouds.12 mph39%30.14 "Hg10 mi
3:56 pm77 °FPassing clouds.9 mph37%30.15 "Hg10 mi
2:56 pm77 °FScattered clouds.10 mph40%30.15 "Hg10 mi
1:56 pm77 °FPassing clouds.9 mph39%30.16 "Hg10 mi
12:56 pm76 °FPassing clouds.12 mph40%30.17 "Hg10 mi
11:56 am74 °FSunny.9 mph43%30.18 "Hg10 mi
Weather by CustomWeather, © 2019

See weather overview